Home > Weather > Rotterdam > Past weeks

Flag for Netherlands Past Weather in Rotterdam, Netherlands — Yesterday and Last 2 Weeks

Now
52 °F

More clouds than sun.


Feels Like: 48 °F
Forecast: 48 / 59 °F
Wind: 10 mph from North

Location: Rotterdam Zestienhoven Airport

Current Time: May 24, 2016 at 7:48:56 PM

Latest Report: May 24, 2016 at 6:55 PM


Visibility: N/A

Pressure: 30.04 "Hg

Humidity: 72%

Dew Point: 43 °F

Location of RotterdamLocation

Past Weather in Rotterdam — Graph

°F

Rotterdam Temperature Yesterday

Maximum temperature yesterday: 57 °F (at 1:25 PM)
Minimum temperature yesterday: 52 °F (at 3:55 AM)
Average temperature yesterday: 54 °F

High & Low Weather Summary for the Past Weeks

 TemperatureHumidityPressure
High77 °F (May 12, 2:55 PM)100% (May 20, 10:25 AM)30.15 "Hg (May 20, 10:25 AM)
Low41 °F (May 16, 12:25 AM)36% (May 12, 2:25 PM)29.50 "Hg (May 12, 12:55 PM)
Average58 °F74%29.87 "Hg
* Reported May 9 6:25 PM — May 24 6:25 PM, Rotterdam, Weather by CustomWeather, © 2016

Note: Actual official high and low records may vary slightly from our data, if they occured in-between our weather recording intervals... More about our weather records

Advertising

Rotterdam Weather History for the Previous 24 Hours

Scroll right to see more
 ConditionsComfort  
Time TempWeatherWind HumidityBarometerVisibility
6:25 PM
Tue, May 24
52 °FMore clouds than sun.10 mph72%30.04 "HgN/A
5:55 PM52 °FMostly cloudy.10 mph72%30.07 "HgN/A
5:25 PM52 °FOvercast.13 mph72%30.07 "HgN/A
4:55 PM54 °FMostly cloudy.14 mph72%30.07 "HgN/A
4:25 PM54 °FPartly sunny.14 mph72%30.07 "HgN/A
3:55 PM54 °FPartly sunny.13 mph72%30.07 "HgN/A
3:25 PM55 °FPartly sunny.13 mph67%30.07 "HgN/A
2:55 PM55 °FScattered clouds.14 mph67%30.07 "HgN/A
2:25 PM55 °FPartly sunny.12 mph67%30.07 "HgN/A
1:55 PM55 °FPartly sunny.13 mph67%30.09 "HgN/A
1:25 PM55 °FPartly sunny.13 mph67%30.09 "HgN/A
12:55 PM57 °FPassing clouds.14 mph67%30.09 "HgN/A
12:25 PM57 °FScattered clouds.13 mph67%30.09 "HgN/A
11:55 AM57 °FPartly sunny.14 mph67%30.07 "HgN/A
11:25 AM55 °FBroken clouds.15 mph72%30.07 "HgN/A
10:55 AM54 °FOvercast.12 mph72%30.07 "HgN/A
10:25 AM54 °FOvercast.14 mph72%30.09 "HgN/A
9:55 AM54 °FOvercast.14 mph67%30.09 "HgN/A
9:25 AM54 °FOvercast.12 mph72%30.07 "HgN/A
8:55 AM52 °FMostly cloudy.10 mph77%30.09 "HgN/A
8:25 AM52 °FOvercast.12 mph77%30.09 "HgN/A
7:55 AM52 °FMore clouds than sun.8 mph77%30.09 "HgN/A
7:25 AM52 °FOvercast.8 mph77%30.09 "HgN/A
6:55 AM50 °FOvercast.10 mph82%30.07 "HgN/A
6:25 AM50 °FOvercast.9 mph82%30.07 "HgN/A
5:55 AM50 °FOvercast.8 mph82%30.07 "HgN/A
5:25 AM50 °FMostly cloudy.8 mph82%30.07 "HgN/A
4:55 AM50 °FOvercast.8 mph88%30.07 "HgN/A
4:25 AM50 °FOvercast.7 mph82%30.07 "HgN/A
3:55 AM52 °FOvercast.9 mph77%30.07 "HgN/A
3:25 AM50 °FMostly cloudy.6 mph88%30.07 "HgN/A
2:55 AM50 °FMostly cloudy.8 mph82%30.09 "HgN/A
2:25 AM50 °FMostly cloudy.8 mph82%30.07 "HgN/A
1:55 AM50 °FOvercast.8 mph88%30.09 "HgN/A
1:25 AM52 °FOvercast.9 mph82%30.09 "HgN/A
12:55 AM52 °FOvercast.8 mph82%30.09 "HgN/A
12:25 AM52 °FMostly cloudy.7 mph82%30.09 "HgN/A
11:55 PM
Mon, May 23
52 °FOvercast.8 mph82%30.07 "HgN/A
11:25 PM52 °FOvercast.9 mph88%30.07 "HgN/A
10:55 PM52 °FMostly cloudy.12 mph88%30.07 "HgN/A
10:25 PM52 °FCloudy.9 mph94%30.07 "HgN/A
9:55 PM52 °FBroken clouds.12 mph94%30.07 "HgN/A
9:25 PM52 °FPartly sunny.8 mph94%30.07 "HgN/A
8:55 PM52 °FMostly cloudy.9 mph94%30.04 "HgN/A
8:25 PM54 °FMostly cloudy.12 mph88%30.04 "HgN/A
7:55 PM54 °FLight rain. Cloudy.8 mph88%30.04 "HgN/A
7:25 PM54 °FMostly cloudy.9 mph94%30.04 "HgN/A
Weather by CustomWeather, © 2016

See weather overviewHow to use our weather pages